This is the latest recevied weather packets stored in our database for station/object DH0DM-13. If no packets are shown the sender has not sent any weather packets the latest 1 day(s).
| Time | Temp. | Humidity | Pressure | Rain* | Wind** | Luminosity | Snow |
|---|---|---|---|---|---|---|---|
| 1778013257 | 15° C | 84% | 979.7 hPa | 0.51 mm | 1.79 m/s, 89° | - | - |
| 1778012656 | 15.56° C | 84% | 979.8 hPa | 0.51 mm | 2.68 m/s, 61° | - | - |
| 1778012055 | 15° C | 85% | 979.6 hPa | 0.51 mm | 4.02 m/s, 265° | - | - |
| 1778011454 | 15° C | 85% | 979.6 hPa | 0.51 mm | 2.24 m/s, 166° | - | - |
| 1778010853 | 15° C | 86% | 979.6 hPa | 0.51 mm | 1.34 m/s, 99° | - | - |
| 1778010252 | 15° C | 87% | 979.6 hPa | 0.51 mm | 0.89 m/s, 319° | - | - |
| 1778009651 | 15° C | 88% | 979.5 hPa | 0.51 mm | 1.34 m/s, 4° | - | - |
| 1778009050 | 15° C | 89% | 979.8 hPa | 0.51 mm | 0 m/s | - | - |
| 1778008450 | 15° C | 89% | 979.6 hPa | 0.51 mm | 0 m/s | - | - |
| 1778007849 | 15° C | 89% | 979.7 hPa | 0.51 mm | 0 m/s | - | - |
| 1778007248 | 15.56° C | 88% | 980 hPa | 0.51 mm | 0 m/s | - | - |
| 1778006647 | 15.56° C | 87% | 980.1 hPa | 0.51 mm | 2.24 m/s, 347° | - | - |
| 1778006046 | 15.56° C | 86% | 980 hPa | 0.51 mm | 0 m/s | - | - |
| 1778005445 | 16.11° C | 83% | 980 hPa | 0.51 mm | 0 m/s | - | - |
| 1778004844 | 16.67° C | 80% | 980.2 hPa | 0.25 mm | 0 m/s | - | - |
| 1778004243 | 16.67° C | 78% | 980.2 hPa | 0.25 mm | 0 m/s | - | - |
| 1778003642 | 16.67° C | 78% | 980.2 hPa | 0.25 mm | 0.89 m/s, 296° | - | - |
| 1778003041 | 17.22° C | 78% | 980.2 hPa | 0.25 mm | 2.24 m/s, 27° | - | - |
| 1778002440 | 17.22° C | 77% | 980.4 hPa | 0.25 mm | 0.45 m/s, 338° | - | - |
| 1778001840 | 17.22° C | 77% | 980.2 hPa | 0.25 mm | 2.24 m/s, 312° | - | - |
| 1778001239 | 17.22° C | 77% | 980.4 hPa | 0.25 mm | 0.45 m/s, 9° | - | - |
| 1778000638 | 17.78° C | 76% | 980.5 hPa | 0.25 mm | 0.45 m/s, 46° | - | - |
| 1778000037 | 17.78° C | 75% | 980.3 hPa | 0.25 mm | 2.24 m/s, 319° | - | - |
| 1777999436 | 17.78° C | 74% | 980.5 hPa | 0.25 mm | 2.24 m/s, 320° | - | - |
| 1777998835 | 17.78° C | 73% | 980.5 hPa | 0.25 mm | 0.89 m/s, 356° | - | - |
* Rain since midnight (hover to see other rain measurements)
** Current wind speed in m/s (hover to see current wind gust speed)